Theta_e
335 334 337 337 337 338 338 338 337 335 334 333 333 331 330 329 330 331 330 342 347 351 354 357 357 357 356 353 352 352 352 353 354 353 351 350 350 350 350 349 349 348 348
336 334 334 335 337 338 338 338 337 334 333 333 334 336 335 336 337 337 339 340 345 351 352 356 358 357 358 357 355 355 353 352 353 353 351 351 350 350 350 350 350 349 348
337 334 334 336 338 338 338 336 336 336 335 336 335 338 339 339 339 341 341 342 342 348 351 353 354 356 357 357 357 356 353 353 353 352 351 351 350 349 350 350 350 350 349
341 339 335 334 337 338 338 337 336 336 336 336 337 338 338 341 342 342 341 339 337 337 339 349 353 354 355 357 357 356 354 352 351 350 351 351 351 350 349 350 350 350 349
343 340 340 341 341 342 341 340 340 339 338 337 338 339 339 341 342 342 338 337 331 334 336 343 348 350 351 354 356 356 356 353 350 349 350 349 350 351 350 349 349 349 349
343 341 341 342 342 342 341 341 340 339 340 336 341 340 339 339 338 336 336 336 335 338 337 330 325 328 339 348 353 355 357 354 350 350 349 348 348 350 350 349 349 348 347
345 342 342 340 342 342 343 340 338 336 336 334 332 333 334 334 336 335 337 336 336 335 331 325 325 330 335 342 346 349 353 345 342 347 348 345 346 348 348 348 349 347 347
348 345 344 342 343 342 340 337 338 336 335 332 328 326 324 326 328 329 331 334 333 333 331 329 331 333 332 337 341 347 352 344 343 352 346 345 346 348 348 348 348 346 346
348 347 343 342 339 339 341 337 334 334 332 331 332 328 320 318 321 324 328 329 329 325 326 327 329 331 330 333 336 341 348 349 349 349 346 346 346 348 348 346 347 347 347
337 337 337 336 334 334 337 336 333 331 332 332 331 332 327 325 320 318 321 324 325 327 327 326 325 327 325 326 334 340 340 341 343 345 346 341 342 345 346 346 346 347 347
333 333 331 328 327 335 336 337 333 330 331 332 331 328 325 324 325 321 318 317 316 318 320 319 320 318 317 322 325 329 335 336 337 336 334 337 339 342 345 345 345 347 348
324 326 331 330 331 333 336 337 332 333 335 335 331 331 325 320 318 315 313 314 312 312 314 316 315 314 317 320 326 336 334 333 330 329 331 334 336 338 339 341 344 346 347
318 319 321 321 323 326 328 328 327 329 329 328 327 327 323 321 318 316 313 313 309 310 309 313 314 315 317 318 324 332 336 332 328 327 327 327 330 332 334 336 338 340 342
315 316 317 317 318 320 321 323 324 324 324 325 324 323 323 324 321 319 314 312 304 304 308 309 311 314 314 314 321 329 329 329 326 325 324 324 326 327 329 330 331 332 334
315 314 314 313 314 315 317 316 318 319 321 322 322 321 320 320 321 319 315 312 309 303 305 307 309 313 312 312 317 320 327 327 328 324 322 322 322 322 324 324 325 326 328
309 310 311 311 311 311 311 309 309 311 313 314 318 317 318 320 321 320 320 318 316 313 310 309 309 309 310 313 316 320 325 327 325 323 323 322 321 321 320 321 321 323 324
307 307 309 309 309 309 309 308 308 309 308 308 309 312 313 315 315 316 317 315 313 311 310 314 311 312 309 310 314 318 322 320 318 320 321 322 320 318 317 317 318 319 320
305 307 307 308 308 308 307 306 306 306 306 306 306 307 308 312 307 309 311 311 312 312 310 312 312 308 309 311 311 311 314 316 315 320 320 320 318 316 316 316 315 315 315
304 304 304 305 305 305 305 304 304 304 303 303 304 304 304 304 302 303 304 304 305 309 309 312 313 312 310 310 310 310 312 314 318 323 318 317 316 316 317 315 315 314 312
301 301 301 302 303 302 303 303 302 300 300 301 301 302 303 303 302 302 304 303 303 302 303 304 306 309 310 312 309 311 310 308 310 315 318 317 318 318 317 316 316 316 313
298 298 299 299 299 299 300 299 299 298 297 297 299 300 300 302 306 306 305 301 299 299 300 301 301 301 305 306 305 308 307 310 309 310 312 312 315 314 314 314 316 316 313
295 295 295 295 295 297 298 299 300 295 295 295 294 295 296 299 299 302 304 305 304 299 299 298 299 299 301 304 307 306 305 304 306 310 310 310 313 310 312 312 313 311 309
291 291 291 292 292 292 295 296 297 294 293 293 293 294 294 297 299 299 300 302 303 304 304 301 297 298 299 302 306 307 304 304 307 308 310 306 308 308 310 314 309 307 308
289 288 288 289 290 291 295 295 295 294 294 294 294 294 294 296 297 297 298 300 300 300 300 302 301 302 302 303 302 306 306 306 305 306 309 307 306 307 309 311 307 307 305
286 287 288 291 290 290 294 294 294 293 293 293 294 295 295 295 296 295 297 297 297 298 301 300 299 298 296 296 297 298 297 300 302 304 310 310 307 307 307 308 310 308 305
286 289 290 292 292 292 293 293 293 293 291 292 293 294 296 295 295 294 295 295 295 295 297 297 297 298 297 298 298 298 298 298 300 301 308 309 305 305 305 313 314 313 311
Wind_Speed
5 4 5 3 4 3 4 5 5 5 5 5 5 6 7 7 6 3 3 11 10 9 12 11 13 14 12 11 11 11 11 11 11 11 12 12 12 13 13 13 12 11 10
5 5 5 5 5 4 5 6 6 5 5 5 6 6 9 6 6 6 4 5 11 10 13 13 13 13 11 12 12 12 12 12 12 13 13 13 13 14 15 14 13 13 11
8 8 6 6 7 5 6 4 5 4 5 3 7 6 6 6 6 7 6 4 4 10 10 13 14 13 11 12 12 12 12 13 12 13 13 13 13 14 14 15 15 13 13
10 7 6 7 6 4 4 3 4 5 5 4 5 6 5 5 7 7 5 4 3 3 6 10 10 10 10 12 13 12 12 10 10 13 12 13 14 15 15 15 16 15 14
10 8 6 7 4 3 3 4 4 4 4 4 5 5 5 4 5 4 6 4 5 4 4 4 4 5 7 10 12 12 13 11 11 10 10 13 13 16 16 17 16 16 15
11 7 7 5 4 4 5 3 4 4 4 4 4 5 4 4 4 4 6 3 3 5 4 3 2 3 7 9 10 11 12 7 9 10 9 11 12 16 16 16 16 17 17
7 7 7 5 5 6 8 5 3 5 3 2 1 3 4 1 5 5 4 4 5 4 4 3 2 2 3 8 6 8 10 15 4 12 5 7 10 13 16 17 17 17 17
6 7 7 7 8 6 6 6 6 3 3 4 3 1 3 3 3 2 3 3 5 2 4 4 3 4 2 3 4 4 9 11 11 10 4 4 8 13 16 17 16 16 17
7 8 6 7 6 5 7 5 4 5 2 3 5 4 2 4 2 2 2 3 5 3 4 4 4 4 3 3 5 2 8 8 12 7 6 6 7 9 13 12 15 16 15
7 7 5 4 5 3 6 5 2 3 2 4 1 4 4 4 2 5 2 2 3 5 5 4 3 2 2 3 5 6 8 9 9 8 7 5 6 7 7 9 11 13 16
8 6 6 5 6 4 5 6 4 5 4 5 4 3 2 3 1 4 7 4 2 3 4 4 4 4 4 4 4 4 9 8 7 6 7 9 9 8 9 10 10 10 13
5 9 9 7 5 4 6 6 5 7 7 4 1 4 5 5 4 4 3 5 3 4 4 4 4 5 3 3 6 6 8 8 6 7 6 9 9 8 7 8 11 10 9
4 7 7 9 7 7 6 5 5 5 5 5 4 6 3 4 2 3 2 4 4 3 3 4 5 5 4 3 5 6 8 8 7 7 6 6 7 5 5 6 8 10 10
4 7 6 6 7 7 7 7 5 4 5 4 6 6 3 4 4 4 5 4 2 2 3 6 3 5 5 4 7 8 6 9 9 9 8 9 8 7 6 7 9 8 9
4 7 8 7 8 7 7 7 5 6 6 6 6 5 4 4 3 4 3 3 4 3 6 4 5 5 4 3 7 5 6 9 11 11 9 10 10 7 7 9 8 10 10
3 4 5 6 7 7 7 6 4 5 4 3 4 5 3 3 4 4 4 5 5 9 7 5 6 6 4 4 6 6 7 9 9 12 11 11 11 10 5 9 9 9 11
4 5 6 5 5 6 6 6 6 7 6 5 5 4 5 4 3 4 3 4 6 5 7 4 5 5 4 6 6 4 5 5 5 13 15 12 12 7 6 6 8 9 10
3 4 5 5 5 5 6 6 6 7 7 7 6 5 5 3 5 4 3 4 3 3 4 12 3 4 7 6 6 5 6 4 5 10 13 12 9 9 6 4 7 9 9
5 5 5 5 5 5 6 4 4 5 5 6 5 6 6 6 6 4 4 4 3 2 3 4 6 3 5 3 5 4 5 5 5 10 12 10 10 8 7 6 7 9 12
5 6 5 5 4 5 7 5 4 4 6 6 6 6 7 7 6 7 6 5 4 3 3 4 4 4 4 5 3 5 5 4 6 5 8 8 8 9 6 8 8 10 11
4 4 5 5 6 6 7 6 6 8 7 7 8 9 9 11 18 14 7 7 5 5 6 7 7 4 4 3 4 3 5 6 5 5 4 3 4 4 4 6 8 10 9
5 5 6 7 8 7 11 13 12 7 6 7 9 10 10 17 17 21 22 22 17 10 10 8 9 10 12 6 6 4 5 4 7 4 4 5 5 4 5 4 9 9 8
6 7 9 9 10 10 14 13 15 7 6 9 10 10 10 10 14 11 15 18 19 20 17 10 10 11 12 10 8 9 6 6 7 5 4 4 4 5 4 4 10 11 9
9 9 10 9 9 8 12 11 14 9 8 10 10 10 11 12 10 11 11 9 7 9 10 9 10 8 7 6 6 6 7 7 4 4 4 7 3 4 3 5 11 12 10
9 9 9 10 9 10 13 13 11 8 9 10 10 10 10 11 14 14 10 9 9 10 8 11 11 12 14 16 14 6 8 6 5 4 5 5 3 3 3 4 4 5 6
9 8 10 9 11 12 13 14 12 7 9 8 9 10 14 12 15 14 10 10 9 10 7 7 7 9 12 13 18 12 8 9 6 6 5 5 3 4 3 2 1 1 1
Wind_Direction
226 227 233 228 240 221 226 230 238 248 252 251 248 251 262 262 269 268 268 271 272 247 238 232 237 241 233 231 230 228 228 228 224 220 221 214 218 225 233 235 233 229 236
229 235 238 230 237 209 223 235 237 235 246 234 252 247 257 265 281 278 262 270 269 245 239 245 247 250 243 232 231 236 228 230 225 223 222 219 219 223 225 232 230 230 224
223 228 234 241 239 224 226 222 247 244 253 231 250 244 252 249 242 245 245 244 278 246 250 246 247 250 253 250 241 240 238 225 223 230 227 221 218 225 226 225 225 229 225
223 220 234 247 250 229 215 214 243 251 243 231 251 249 259 255 252 255 254 260 270 276 281 266 255 248 255 259 258 253 247 244 235 229 227 225 219 219 222 226 223 223 222
225 221 229 246 227 237 245 243 253 228 246 247 247 247 245 251 257 257 258 253 247 248 265 322 277 259 259 261 261 265 256 235 240 240 228 230 229 228 220 221 218 221 224
224 211 233 238 224 222 238 220 224 245 245 262 284 306 274 233 262 273 283 292 240 244 257 266 316 306 283 269 258 256 267 274 254 250 234 235 245 231 226 223 219 213 223
227 208 225 220 204 218 234 223 222 236 254 226 348 286 282 332 254 253 267 278 265 246 266 286 262 259 302 306 305 274 255 250 328 290 255 250 248 253 235 224 221 218 212
227 222 218 230 233 230 250 230 213 218 208 182 193 185 300 303 272 322 331 292 281 301 257 281 314 324 351 333 331 266 241 259 260 249 273 291 255 250 240 229 221 222 214
251 241 222 213 218 207 245 257 234 213 248 243 231 169 206 236 280 15 346 297 304 300 297 313 302 290 312 329 329 319 259 256 265 279 295 286 287 277 262 245 226 230 226
347 327 314 322 275 274 259 262 211 206 237 243 278 257 254 161 172 309 281 219 300 274 280 287 297 320 328 317 291 304 279 273 294 283 282 277 284 290 290 284 246 228 232
3 349 346 341 318 310 282 279 245 210 218 214 179 172 276 12 283 177 257 268 20 271 262 261 275 289 297 291 273 269 281 282 298 333 315 307 303 295 287 287 279 248 230
360 8 9 2 341 310 295 288 290 264 253 245 318 216 214 182 187 177 215 249 209 253 253 257 273 281 290 271 261 258 267 263 263 273 283 293 300 293 297 309 309 303 280
353 3 5 7 10 2 351 344 325 310 308 299 265 261 236 223 155 191 160 252 245 298 266 229 244 250 261 276 268 269 283 258 256 264 279 269 274 298 320 321 317 313 309
355 348 360 5 2 4 1 2 353 336 324 303 300 282 300 231 207 189 180 155 267 302 301 265 228 215 226 232 247 255 262 267 272 264 264 282 291 303 304 305 303 292 287
343 356 350 350 351 353 355 354 358 352 348 323 308 299 279 274 242 228 187 163 165 237 248 254 246 271 256 234 245 240 233 250 250 259 266 270 274 259 278 302 288 287 276
333 327 323 329 326 333 334 344 337 319 327 298 298 321 314 282 272 250 255 258 219 237 262 190 229 239 262 258 254 251 235 232 261 262 259 264 269 278 279 294 294 274 266
346 341 329 323 320 318 319 324 317 309 317 309 319 328 318 317 308 293 258 219 234 222 240 263 218 238 242 249 259 233 246 252 257 267 269 257 257 271 284 295 298 295 281
8 4 4 11 360 354 340 335 321 321 319 319 316 321 302 324 320 329 317 301 277 250 227 270 249 246 225 237 240 247 253 243 238 259 252 247 249 257 257 272 286 293 293
39 26 25 21 6 350 338 356 25 359 344 330 335 323 306 314 301 290 269 280 277 287 260 264 288 233 250 252 267 254 249 261 250 245 262 257 249 230 223 267 276 279 291
23 9 355 336 322 317 312 275 294 288 273 278 273 269 274 274 268 270 254 247 242 251 256 263 263 251 234 248 219 239 265 237 259 250 254 241 208 214 240 258 265 274 273
339 312 293 287 279 288 289 287 276 275 257 260 254 263 269 264 271 266 263 257 242 245 250 256 265 264 252 234 218 233 232 252 250 225 255 237 217 223 254 267 259 258 262
288 286 300 301 298 286 292 286 291 287 261 266 275 274 270 276 273 271 265 261 252 236 242 246 252 250 256 251 248 224 228 237 265 208 210 248 184 230 231 237 249 262 282
319 314 308 303 297 290 294 293 294 290 275 272 273 274 278 278 280 276 275 269 260 252 244 243 244 247 256 252 255 254 237 226 237 250 182 247 184 237 240 247 254 263 268
310 303 300 293 285 287 300 314 305 294 282 279 276 271 270 277 278 281 280 265 259 257 247 243 246 255 259 284 297 302 302 272 272 250 194 239 184 242 272 259 253 251 260
306 298 292 298 303 297 300 293 298 295 289 284 280 278 277 279 279 273 270 260 259 255 240 232 236 245 260 270 263 273 271 273 269 243 198 228 211 227 235 259 264 251 279
290 295 299 297 293 302 311 304 297 290 287 285 279 273 271 264 269 271 273 267 262 263 258 254 247 246 249 252 253 249 240 244 242 294 210 183 196 155 284 212 161 230 312